User: anonymous   Login
Location: Unspecified
(0.0000°N, 0.0000°E)
Time: 02:48:22
(UTC+00:00)
Language:

SINAH 1 - Orbit

View from above orbital plane
View from above orbital plane
View from above satellite
View from above satellite

Ground track
Ground track

The orbit data is extracted from the following two-line orbital elements,

1 28893U 05043D   17232.44555878 +.00000017 +00000-0 +12427-4 0  9991
2 28893 097.8825 027.5064 0014169 314.0181 045.9852 14.61441067629581
Epoch (UTC): 20 August 2017 10:41:36
Eccentricity: 0.0014169
inclination: 97.8825°
perigee height: 678 km
apogee height: 698 km
right ascension of ascending node: 27.5064°
argument of perigee: 314.0181°
revolutions per day: 14.61441067
mean anomaly at epoch: 45.9852°
orbit number at epoch: 62958

The dashed part of the orbit path shows where the satellite is in the earth's shadow,  

DLR